Time,TemperatureF,DewpointF,PressureIn,WindDirection,WindDirectionDegrees,WindSpeedMPH,WindSpeedGustMPH,Humidity,HourlyPrecipIn,Conditions,Clouds,dailyrainin,SoftwareType,DateUTC
2013-01-06 15:02:00,15.0,14.0,-100.00,SSW,195,8.0,11.0,95,0.00,,,0.00,,2013-01-06 21:02:00,
2013-01-06 15:12:00,15.0,14.0,-100.00,South,175,7.0,11.0,95,0.00,,,0.00,,2013-01-06 21:12:00,
2013-01-06 15:22:00,16.0,14.0,-100.00,SSW,195,7.0,10.0,95,0.00,,,0.00,,2013-01-06 21:22:00,
2013-01-06 15:33:00,16.0,14.0,-100.00,South,180,5.0,8.0,95,0.00,,,0.00,,2013-01-06 21:33:00,
2013-01-06 15:42:00,15.0,14.0,-100.00,South,180,5.0,6.0,95,0.00,,,0.00,,2013-01-06 21:42:00,
2013-01-06 15:52:00,15.0,14.0,-100.00,South,180,6.0,7.0,95,0.00,,,0.00,,2013-01-06 21:52:00,
2013-01-06 16:02:00,14.0,12.0,-100.00,South,175,5.0,6.0,94,0.00,,,0.00,,2013-01-06 22:02:00,
2013-01-06 16:12:00,14.0,12.0,-100.00,South,185,6.0,6.0,94,0.00,,,0.00,,2013-01-06 22:12:00,
2013-01-06 16:22:00,14.0,12.0,-100.00,South,190,5.0,6.0,93,0.00,,,0.00,,2013-01-06 22:22:00,
2013-01-06 16:33:00,14.0,12.0,-100.00,South,185,4.0,6.0,93,0.00,,,0.00,,2013-01-06 22:33:00,
2013-01-06 16:43:00,13.0,12.0,-100.00,South,185,6.0,6.0,93,0.00,,,0.00,,2013-01-06 22:43:00,
2013-01-06 16:52:00,12.0,10.0,-100.00,South,175,6.0,6.0,93,0.00,,,0.00,,2013-01-06 22:52:00,
2013-01-06 17:02:00,12.0,10.0,-100.00,South,170,4.0,6.0,93,0.00,,,0.00,,2013-01-06 23:02:00,
2013-01-06 17:12:00,12.0,10.0,-100.00,South,170,4.0,5.0,93,0.00,,,0.00,,2013-01-06 23:12:00,
2013-01-06 17:22:00,12.0,10.0,-100.00,SSE,160,6.0,7.0,93,0.00,,,0.00,,2013-01-06 23:22:00,
2013-01-06 17:33:00,12.0,10.0,-100.00,SSE,155,6.0,10.0,93,0.00,,,0.00,,2013-01-06 23:33:00,
2013-01-06 17:42:00,10.0,9.0,-100.00,South,170,6.0,8.0,93,0.00,,,0.00,,2013-01-06 23:42:00,
2013-01-06 17:52:00,9.0,7.0,-100.00,South,175,6.0,7.0,93,0.00,,,0.00,,2013-01-06 23:52:00,
2013-01-06 18:02:00,8.0,7.0,-100.00,South,170,7.0,7.0,93,0.00,,,0.00,,2013-01-07 00:02:00,
2013-01-06 18:12:00,8.0,7.0,-100.00,SSE,165,9.0,11.0,94,0.00,,,0.00,,2013-01-07 00:12:00,
2013-01-06 18:23:00,9.0,9.0,-100.00,SSE,160,6.0,11.0,94,0.00,,,0.00,,2013-01-07 00:23:00,
2013-01-06 18:32:00,9.0,7.0,-100.00,SSE,150,7.0,10.0,94,0.00,,,0.00,,2013-01-07 00:32:00,
2013-01-06 18:42:00,9.0,7.0,-100.00,SE,145,7.0,10.0,94,0.00,,,0.00,,2013-01-07 00:42:00,
2013-01-06 18:52:00,9.0,9.0,-100.00,SE,145,7.0,9.0,94,0.00,,,0.00,,2013-01-07 00:52:00,
2013-01-06 19:02:00,9.0,9.0,-100.00,SSE,150,7.0,10.0,94,0.00,,,0.00,,2013-01-07 01:02:00,
2013-01-06 19:12:00,10.0,9.0,-100.00,SSE,150,8.0,12.0,94,0.00,,,0.00,,2013-01-07 01:12:00,
2013-01-06 19:22:00,10.0,9.0,-100.00,SSE,160,7.0,11.0,94,0.00,,,0.00,,2013-01-07 01:22:00,
2013-01-06 19:32:00,10.0,9.0,-100.00,SE,145,7.0,10.0,94,0.00,,,0.00,,2013-01-07 01:32:00,
2013-01-06 19:42:00,10.0,9.0,-100.00,SSE,165,6.0,11.0,94,0.00,,,0.00,,2013-01-07 01:42:00,
2013-01-06 19:52:00,10.0,9.0,-100.00,SSE,150,8.0,12.0,95,0.00,,,0.00,,2013-01-07 01:52:00,
2013-01-06 20:02:00,10.0,9.0,-100.00,SSE,160,9.0,12.0,95,0.00,,,0.00,,2013-01-07 02:02:00,
2013-01-06 20:12:00,10.0,9.0,-100.00,SSE,155,9.0,13.0,95,0.00,,,0.00,,2013-01-07 02:12:00,
2013-01-06 20:22:00,10.0,9.0,-100.00,SSE,155,9.0,13.0,95,0.00,,,0.00,,2013-01-07 02:22:00,
2013-01-06 20:32:00,11.0,10.0,-100.00,SSE,150,9.0,14.0,95,0.00,,,0.00,,2013-01-07 02:32:00,
2013-01-06 20:42:00,11.0,10.0,-100.00,SSE,155,9.0,13.0,95,0.00,,,0.00,,2013-01-07 02:42:00,
2013-01-06 20:52:00,12.0,10.0,-100.00,SSE,155,10.0,14.0,95,0.00,,,0.00,,2013-01-07 02:52:00,
2013-01-06 21:02:00,12.0,10.0,-100.00,SSE,155,12.0,17.0,95,0.00,,,0.00,,2013-01-07 03:02:00,
2013-01-06 21:12:00,13.0,12.0,-100.00,SSE,160,10.0,16.0,95,0.00,,,0.00,,2013-01-07 03:12:00,
2013-01-06 21:22:00,13.0,12.0,-100.00,SSE,165,12.0,17.0,95,0.00,,,0.00,,2013-01-07 03:22:00,
2013-01-06 21:32:00,14.0,12.0,-100.00,SSE,160,16.0,24.0,95,0.00,,,0.00,,2013-01-07 03:32:00,
2013-01-06 21:42:00,14.0,12.0,-100.00,SSE,165,15.0,20.0,95,0.00,,,0.00,,2013-01-07 03:42:00,
2013-01-06 21:52:00,14.0,12.0,-100.00,SSE,165,16.0,22.0,95,0.00,,,0.00,,2013-01-07 03:52:00,
2013-01-06 22:02:00,14.0,12.0,-100.00,SSE,165,13.0,19.0,94,0.00,,,0.00,,2013-01-07 04:02:00,
2013-01-06 22:12:00,14.0,12.0,-100.00,South,170,14.0,18.0,94,0.00,,,0.00,,2013-01-07 04:12:00,
2013-01-06 22:22:00,14.0,12.0,-100.00,South,170,13.0,19.0,94,0.00,,,0.00,,2013-01-07 04:22:00,
2013-01-06 22:32:00,14.0,12.0,-100.00,SSE,165,13.0,19.0,93,0.00,,,0.00,,2013-01-07 04:32:00,
2013-01-06 22:42:00,14.0,12.0,-100.00,SSE,165,12.0,18.0,93,0.00,,,0.00,,2013-01-07 04:42:00,
2013-01-06 22:52:00,15.0,14.0,-100.00,SSE,160,15.0,19.0,93,0.00,,,0.00,,2013-01-07 04:52:00,
2013-01-06 23:02:00,15.0,14.0,-100.00,SSE,160,13.0,19.0,93,0.00,,,0.00,,2013-01-07 05:02:00,
2013-01-06 23:12:00,15.0,14.0,-100.00,South,170,13.0,17.0,93,0.00,,,0.00,,2013-01-07 05:12:00,
2013-01-06 23:22:00,15.0,14.0,-100.00,SSE,165,12.0,19.0,93,0.00,,,0.00,,2013-01-07 05:22:00,
2013-01-06 23:33:00,16.0,14.0,-100.00,SSE,165,13.0,17.0,93,0.00,,,0.00,,2013-01-07 05:33:00,
2013-01-06 23:42:00,15.0,14.0,-100.00,South,170,13.0,17.0,93,0.00,,,0.00,,2013-01-07 05:42:00,
2013-01-06 23:52:00,15.0,14.0,-100.00,SSE,165,13.0,16.0,92,0.00,,,0.00,,2013-01-07 05:52:00,